Regional Weather Roundup
Issued by NWS Jackson, KY

Home | Current Version | Previous Version | Graphics & Text | Print | Product List | Glossary On
Versions: 1 2 3 4 5 6 7 8 9 10 11 12 13 14 15 16 17 18 19 20 21 22 23 24 25 26 27 28 29 30 31 32 33 34 35 36 37 38 39 40 41 42 43 44 45 46 47 48 49 50
000
ASUS43 KJKL 210411
RWRJKL

EAST KENTUCKY HOURLY WEATHER ROUNDUP
NATIONAL WEATHER SERVICE JACKSON KY
1200 AM EDT SUN SEP 21 2014

NOTE: "FAIR" INDICATES FEW OR NO CLOUDS BELOW 12,000 FEET WITH
NO SIGNIFICANT WEATHER AND/OR OBSTRUCTIONS TO VISIBILITY.

* THESE REPORTS ARE NOT UNDER NWS QUALITY CONTROL AND MAY NOT
  REPORT WEATHER SUCH AS PRECIPITATION AND FOG.

KYZ079-080-083-085-087-088-110-112-115-119-120-210500
...EASTERN KENTUCKY...

CITY           SKY/WX    TMP DP  RH WIND       PRES   REMARKS
JACKSON        CLEAR     67  63  87 CALM      30.03F
LONDON         CLEAR     66  63  90 CALM      30.04F FOG
SOMERSET*      PTCLDY    64  64 100 CALM      30.04F
MONTICELLO*    CLEAR     63  63 100 CALM      30.05S FOG
MIDDLESBORO*   PTCLDY    61  60  97 CALM      30.08S
HARLAN APT*    CLEAR     61  61 100 MISG      30.08F
BLACK MTN*       N/A     61  55  82 S5          N/A
PIKEVILLE APT* CLEAR     66  64  94 S3        30.04F
BIG SANDY*     CLEAR     68  65  89 CALM      30.03F
MOREHEAD APT*  CLEAR     66  63  88 S6        30.01F
$$

KYZ035-036-041-042-044-050-067-078-099-210500
...CENTRAL KENTUCKY...

CITY           SKY/WX    TMP DP  RH WIND       PRES   REMARKS
MT STERLING*   CLEAR     68  64  88 SW6       30.01F
FLEMING/MASON* CLEAR     68  64  88 S6        29.99F
DANVILLE*      CLEAR     64  63  94 CALM      30.02F
RICHMOND*      CLEAR     70  63  78 S6        30.01F
LEXINGTON      CLEAR     71  64  78 S9        29.99F
FRANKFORT      CLEAR     69  64  84 SW5       29.97F
$$

KYZ091>093-OHZ055-061-077-WVZ005-015-034-035-042-210500
...SOUTHERN OHIO/WEST VIRGINIA...

CITY           SKY/WX    TMP DP  RH WIND       PRES   REMARKS
COVINGTON      CLOUDY    71  64  78 S9        29.94F
COLUMBUS       CLOUDY    75  62  64 SW8       29.93S
DAYTON         CLOUDY    73  65  75 SW13      29.93S
WILMINGTON     MOCLDY    68  62  81 S9        29.94F
HUNTINGTON     CLEAR     63  62  97 CALM      29.99F FOG
CHARLESTON     CLEAR     64  64 100 CALM      30.01F
PINEVILLE*     PTCLDY    63  63 100 MISG      30.13F FOG
BECKLEY        PTCLDY    61  54  77 SE3       30.11F
BLUEFIELD      PTCLDY    64  53  67 CALM      30.13F
$$

VAZ002-007-008-TNZ017-027-036-066-071-210500
...SOUTHWEST VIRGINIA/EAST TENNESSEE...

CITY           SKY/WX    TMP DP  RH WIND       PRES   REMARKS
WISE*          CLEAR     61  55  82 CALM      30.13F
JONESVILLE*    CLEAR     59  59 100 CALM      30.09F
ABINGDON*      CLEAR     62  58  88 CALM      30.11S
BRISTOL        CLEAR     59  56  89 CALM      30.09S
KNOXVILLE      PTCLDY    67  61  81 S3        30.05F
OAK RIDGE      CLEAR     67  64  90 CALM      30.07F
CROSSVILLE     CLEAR     65  60  84 CALM      30.10S
NASHVILLE      PTCLDY    71  66  84 S3        30.03S
$$

...KEY TO REMARKS...
VSB - VISIBILITY IN MILES
WCI - WIND CHILL INDEX
HX  - HEAT INDEX

$$



USA.gov is the U.S. government's official web portal to all federal, state and local government web resources and services.